Showing default

LEGION 6, 62901

Orbit data source: Space-Track

LEGION 6, 62901 is a payload satellite owned by Maxar Intel (US) in LEO that was launched on Tue, 04 Feb 2025 UTC via an FALCON 9 launch vehicle from the Air Force Eastern Test Range (AFETR). Payload-class satellites include a variety of spacecraft equipped with specific instruments for various scientific and technological missions. These include communications satellites like Starlink; space stations such as the ISS; scientific satellites like the Hubble; Earth observation satellites from companies like Planet Labs, Umbra, and HawkEye 360; GPS; miniature CubeSats for education and research; and military/defense satellites.

Loading next visibility...
Identifier
62901, 2025-025B
Orbit
LEO
Country
Flag of USUS
Related business
Manufacturer
Maxar Space Inf
Mission
Operational Commercial Imaging
Bus & Motor
LEGION, Unknown motor
Mass
~700 kg wet, 630 kg dry
Launch date (UTC)
2025-02-04 (7 months ago)
Launch vehicle
FALCON 9
Launch site
Air Force Eastern Test Range (AFETR)
Object type
Payload
Rocket body
Debris
Shape & HBR
Box + 1 Pan, 2.5 m
Radar Cross Section
9.079 m², Large (>1 m²)

Expand to show TLE details & history
Last TLE update: 21 hours ago

TLE from 21 hours ago
0 LEGION 6
1 62901U 25025B   25259.33034385  .00005423  00000-0  30471-3 0  9996
2 62901  44.9931 238.3614 0018023  13.5793 346.5567 15.14233496 34088
Epoch: 2025-09-16T07:55Z
TLE epoch observation values (Epoch: 2025-09-16T07:55:41.708Z)
Latitude
0.00001°
Longitude
123.91544°
Altitude
511.209 km
Speed
7.617 km/s
True Right ascension
15h 53m 26s
True Declination
0° 00' 00"
Sunlit
Object was in daylight at epoch
Visualization orbit readout
Latitude
Unknown
Longitude
Unknown
Altitude
Unknown
Speed
Unknown
Apparent Right ascension
Unknown
Apparent Declination
Unknown
Sunlit
N/A
Visualization observer readout
Local Sidereal Time
22:06:31
Azimuth
Unknown
Elevation
Unknown
Doppler factor
Unknown
Orbital elements
Apogee altitude
537.349 km
Perigee altitude
512.466 km
Semi-major axis
6,903.045 km
Eccentricity
0.0018
Inclination
44.9931°
RAAN
238.3614°
Arg. of periapsis
13.5793°
True anomaly
346.50858°
Mean anomaly
346.5567°
Eccentric anomaly
346.53265°
Mean motion
3.78427 °/min
Orbital period
95.13 mins
BSTAR
0.00030471
Loading maneuver chart data...
Computing Atmospheric mass density...
Loading historical data...
Loading historical data...
Loading historical data...
Loading historical data...
Loading historical data...
Loading historical data...
Loading historical data...
Other satellites on launch #25 in the year 2025 (2025-02-04 UTC)

Documentation

Showing up to 5 results
|